{"data":{"norad_id":63630,"epoch":"2026-09-21T21:34:53.599008Z","epoch_age_seconds":86783,"freshness":"FRESH","line1":"1 63630U 25081A   26264.89923147  .00002155  00000+0  19197-3 0  9999","line2":"2 63630  45.4109 194.2470 0013381  21.3056 338.8377 14.99375974 77699","mean_motion":14.99375974,"eccentricity":0.0013381,"inclination_deg":45.4109,"raan_deg":194.247,"arg_perigee_deg":21.3056,"mean_anomaly_deg":338.8377,"bstar":0.00019197,"rev_number":7769,"period_min":96.039954285675,"perigee_km":559.52745574758,"apogee_km":578.11891058978,"semimajor_km":6946.9601831687,"source":"CELESTRAK","updated_at":"2026-09-22T09:00:29.239580Z"}}